Longview, TX

2:21 AM CDT on March 26, 2017 (GMT -0500)
Gregg County

Weather History for KGGG - April, 2014

Change the Weather History Date:

Saturday, April 5, 2014

  Actual Average Record
Temperature  
Mean Temperature 53 °F 62 °F  
Max Temperature 57 °F 74 °F 89 °F (1943)
Min Temperature 48 °F 50 °F 20 °F (1920)
Degree Days  
Heating Degree Days 12 5  
Month to date heating degree days 18 25  
Since 1 July heating degree days 2490 2184  
Cooling Degree Days 0 2  
Month to date cooling degree days 25 10  
Year to date cooling degree days 40 49  
Growing Degree Days 2 (Base 50)    
Moisture  
Dew Point 39 °F    
Average Humidity 57    
Maximum Humidity 68    
Minimum Humidity 46    
Precipitation  
Precipitation 0.13 in 0.11 in 2.02 in (1986)
Month to date precipitation 0.40 0.60  
Year to date precipitation 7.13 12.31  
Snow  
Snow 0.00 in - - ()
Month to date snowfall 0.0  
Since 1 July snowfall 0.3  
Snow Depth 0.00 in    
Sea Level Pressure  
Sea Level Pressure 30.06 in    
Wind  
Wind Speed 8 mph (ENE)    
Max Wind Speed 18 mph    
Max Gust Speed 24 mph    
Visibility 10 miles    
Events Thunderstorm    
T = Trace of Precipitation, MM = Missing Value Source: NWS Daily Summary

Daily Weather History Graph

Daily Weather History Graph

Search for Another Location

Airport or City:

Trip Planner

Search our weather history database for the weather conditions in past years. The results will help you decide how hot, cold, wet, or windy it might be!

Date:

Astronomy

Apr. 05, 2014 Rise Set
Actual Time 7:01 AM CDT 7:41 PM CDT
Civil Twilight 6:37 AM CDT 8:06 PM CDT
Nautical Twilight 6:07 AM CDT 8:35 PM CDT
Astronomical Twilight 5:38 AM CDT 9:05 PM CDT
Moon 11:22 AM CDT (4/5) 12:40 AM CDT (4/5)
Length of Visible Light 13h 29m
Length of Day
12h 39m
Waxing Crescent, 34% of the Moon is Illuminated
Apr 5
Waxing Crescent
Apr 7
First Quarter
Apr 15
Full
Apr 22
Last Quarter
Apr 29
New

Hourly Weather History & Observations

Time (CDT) Temp. Dew Point Humidity Pressure Visibility Wind Dir Wind Speed Gust Speed Precip Events Conditions
12:53 AM 51.1 °F 37.0 °F 59% 30.10 in 10.0 mi North 4.6 mph - N/A   Clear
1:53 AM 54.0 °F 33.1 °F 45% 30.09 in 10.0 mi NNE 5.8 mph - N/A   Clear
2:53 AM 52.0 °F 34.0 °F 50% 30.09 in 10.0 mi NE 8.1 mph - N/A   Clear
3:53 AM 51.1 °F 34.0 °F 52% 30.08 in 10.0 mi NE 6.9 mph - N/A   Clear
4:53 AM 50.0 °F 34.0 °F 54% 30.09 in 10.0 mi ENE 4.6 mph - N/A   Clear
5:53 AM 48.9 °F 34.0 °F 56% 30.08 in 10.0 mi NE 5.8 mph - N/A   Clear
6:53 AM 48.9 °F 35.1 °F 59% 30.09 in 10.0 mi NE 5.8 mph - N/A   Clear
7:53 AM 50.0 °F 37.0 °F 61% 30.13 in 10.0 mi ENE 6.9 mph - N/A   Clear
8:53 AM 51.1 °F 37.9 °F 61% 30.14 in 10.0 mi ENE 9.2 mph - N/A   Clear
9:53 AM 51.1 °F 37.9 °F 61% 30.16 in 10.0 mi ENE 5.8 mph - N/A   Clear
10:53 AM 53.1 °F 39.0 °F 59% 30.15 in 10.0 mi Variable 6.9 mph - N/A   Clear
11:53 AM 54.0 °F 39.0 °F 57% 30.14 in 10.0 mi ENE 11.5 mph - N/A   Clear
12:53 PM 55.0 °F 39.0 °F 55% 30.12 in 10.0 mi ENE 11.5 mph - N/A   Partly Cloudy
1:53 PM 55.0 °F 39.0 °F 55% 30.09 in 10.0 mi ENE 11.5 mph - N/A   Partly Cloudy
2:53 PM 55.9 °F 39.0 °F 53% 30.05 in 10.0 mi ENE 12.7 mph - N/A   Clear
3:53 PM 57.0 °F 39.9 °F 53% 30.03 in 10.0 mi ENE 9.2 mph - N/A   Clear
4:53 PM 55.0 °F 39.9 °F 57% 30.01 in 10.0 mi NE 9.2 mph - N/A   Clear
5:53 PM 54.0 °F 39.0 °F 57% 30.00 in 10.0 mi ENE 11.5 mph - N/A   Clear
6:53 PM 54.0 °F 39.0 °F 57% 30.01 in 10.0 mi East 11.5 mph - N/A   Mostly Cloudy
7:53 PM 52.0 °F 39.9 °F 63% 29.99 in 10.0 mi East 6.9 mph - N/A   Clear
8:53 PM 52.0 °F 41.0 °F 66% 29.99 in 10.0 mi ENE 6.9 mph - N/A   Overcast
9:53 PM 52.0 °F 41.0 °F 66% 29.99 in 10.0 mi ENE 6.9 mph - N/A   Scattered Clouds
10:05 PM 51.8 °F 41.0 °F 67% 29.99 in 10.0 mi ENE 6.9 mph - N/A Thunderstorm Mostly Cloudy
10:53 PM 48.9 °F 44.1 °F 83% 30.00 in 10.0 mi ENE 8.1 mph - 0.12 in Thunderstorm Overcast
11:03 PM 48.2 °F 44.6 °F 87% 30.01 in 10.0 mi East 3.5 mph - N/A   Overcast
11:53 PM 50.0 °F 44.1 °F 80% 30.02 in 10.0 mi SE 4.6 mph - 0.01 in   Overcast